Regional Weather Roundup
Issued by NWS Charleston, SC

Current Version | Previous Version | Graphics & Text | Print | Product List | Glossary On
Versions: 1 2 3 4 5 6 7 8 9 10 11 12 13 14 15 16 17 18 19 20 21 22 23 24 25 26 27 28 29 30 31 32 33 34 35 36 37 38 39 40 41 42 43 44 45 46 47 48 49 50
298
ASUS42 KCHS 132113
RWRCHS

REGIONAL WEATHER ROUNDUP
NATIONAL WEATHER SERVICE CHARLESTON SC
400 PM EST SAT FEB 13 2016

NOTE: "FAIR" INDICATES FEW OR NO CLOUDS BELOW 12,000 FEET WITH NO
SIGNIFICANT WEATHER AND/OR OBSTRUCTIONS TO VISIBILITY.

NOT ALL STATIONS ARE QUALITY CONTROLLED BY THE NATIONAL
WEATHER SERVICE. USE DATA WITH CAUTION...ESPECIALLY
DEWPOINT OBSERVATIONS.

SCZ027-030-031-034>040-042>050-132200-
...SOUTHEAST SOUTH CAROLINA...

CITY           SKY/WX    TMP DP  RH WIND       PRES   REMARKS
N CHARLESTON   SUNNY     51  17  26 NW14      30.25R
WATERFRONT PRK   N/A     48  27  44 NE10      30.10S
MOUNT PLEASANT FAIR      48  19  32 NW9       30.26S
JOHNS ISLAND   FAIR      52  21  30 NW6G12    30.25S
PINOPOLIS        N/A     46  19  34 N6        30.17F
MONCKS CORNER  FAIR      45  12  26 NW6       30.26S
SUMMERVILLE    FAIR      50  21  32 NW7       30.26S
BEAUFORT MCAS  SUNNY     53  23  31 NW10      30.25S
BEAUFORT ARPT  FAIR      52  27  37 NW7       30.25S
HILTON HEAD IS SUNNY     52  28  40 N10       30.26S
WALTERBORO     CLEAR     52  19  28 NW9       30.26S
ALLENDALE      FAIR      50  19  29 N8G15     30.24F

...SOUTHERN MIDLANDS AND PEE DEE...

CITY           SKY/WX    TMP DP  RH WIND       PRES   REMARKS
GEORGETOWN     FAIR      45  18  33 NW7       30.27R
KINGSTREE      FAIR      45  14  29 CALM      30.27S
ORANGEBURG     SUNNY     49   6  17 N10G18    30.26S
BARNWELL       FAIR      50  21  32 N7        30.26S
AIKEN          FAIR      46  19  34 N7        30.28S
MANNING        FAIR      46  10  23 NW8       30.26S
COLUMBIA       SUNNY     47   0  14 NW7G24    30.27S
SUMTER         SUNNY     46  12  25 N12       30.23F
FLORENCE       SUNNY     43  11  27 N12G18    30.27S
MYRTLE BEACH   SUNNY     45  12  26 NW15G21   30.28R
N MYRTLE BEACH SUNNY     44  13  28 NW8       30.26R

$$

GAZ063-065-086>088-099>101-113>116-118-119-134>141-150-132200-
...SOUTHEAST GEORGIA...

CITY           SKY/WX    TMP DP  RH WIND       PRES   REMARKS
SAVANNAH ARPT  SUNNY     53  20  27 NW13G18   30.26S
HUNTER AAF     SUNNY     53  23  30 NW7       30.23S
FORT STEWART   SUNNY     54  19  25 W9G18     30.23S
STATESBORO     SUNNY     56   2  11 N9        30.25F
SYLVANIA       CLEAR     52  25  34 NW13      30.26S
CLAXTON        FAIR      55  24  31 NW6       30.25F

...CSRA...CENTRAL AND FAR SOUTHEAST GEORGIA...

CITY           SKY/WX    TMP DP  RH WIND       PRES   REMARKS
THOMSON        SUNNY     50  17  26 NW7       30.30S
AUGUSTA-BUSH   SUNNY     51  14  22 N9        30.25F
AUGUSTA-DANIEL SUNNY     51  14  22 N12       30.25F
SWAINSBORO     FAIR      52  14  22 NW10G16   30.26S
VIDALIA        SUNNY     54  16  22 NW9       30.26S
EASTMAN        FAIR      53  11  18 W9G17     30.30S
HAZLEHURST     FAIR      55  14  20 NW8G21    30.25F
ALMA           SUNNY     55  16  21 NW10      30.26F
WAYCROSS       SUNNY     58  23  26 NW7       30.26F
JESUP          FAIR      57  23  26 N5        30.26S
BAXLEY         FAIR      55  14  19 NW10G16   30.25F
BRUNSWICK      SUNNY     59  23  25 N6        30.25F
SAINT SIMONS   SUNNY     50  33  52 E8        30.25F

$$

SCZ027-028-034-036>038-045-046-048>050-GAZ119-141-132200-
...LAKE AND SUPPLEMENTAL COASTAL OBSERVATIONS...

STATION/POSITION TIME  TEMP    WIND        PRES    WAVE   SWELL
                       AIR SEA DIR/SP/G            HT/PER HT/PER/DIR
                 (UTC) (F)     (DEG/KT/KT) (MB)    (FT/S) (FT/S/D)
WINYAH BAY       1945   44     340/  9     1023.0
LAKE MURRAY      2000   45     340/  5/  9 1024.4F
ACE BASIN NERRS  NOT AVBL
FORT PULASKI     2000   49 50  290/ 13/ 17 1024.6F
SAPELO ISLAND    2000   56     310/  7     1024.0S

$$

ANZ835-935-AMZ111-154-330-350-352-354-370-450-454-472-132200-
...C-MAN AND BUOY OBSERVATIONS...

STATION/POSITION TIME  TEMP    WIND        PRES    WAVE   SWELL
                       AIR SEA DIR/SP/G            HT/PER HT/PER/DIR
                 (UTC) (F)     (DEG/KT/KT) (MB)    (FT/S) (FT/S/D)
BUOY 41004       2050   44 66  350/ 10/ 14 1024.6R   4/ 6   3/ 6
BUOY 41008       2050   46 53   60/  8/ 10 1024.9F   2/ 6   2/ 60/ 6
FOLLY BEACH CMAN 2100   47      10/ 11/ 14 1024.6R
CAPERS NEARSHORE 2008   44      90/  8/ 12 1024.2R
FRIPP NEARSHORE  2000   49     340/ 10/ 12 1023.7R


STATION/POSITION TIME  TEMP    WIND        PRES    WAVE   SWELL
                       AIR SEA DIR/SP/G            HT/PER HT/PER/DIR
                 (UTC) (F)     (DEG/KT/KT) (MB)    (FT/S) (FT/S/D)
5E ST. MARYS GA  2021      56                N/A     2/ 5
FRYING PAN BUOY  2000   40 61  330/ 10/ 16 1024.3R
BUOY 41025       2050   35 72  320/ 17/ 25 1023.6R   4/ 8   2/ 50/ 8
CAPE LOOKOUT NC  NOT AVBL
BUOY 41002       2050   52 68  340/ 21/ 27   N/A    10/ 8   5/270/ 9
BUOY 41010       2020   63 72              1021.4R
ST AUGUSTINE FL  2100   51 58   20/ 13/ 14 1024.7F


$$




USA.gov is the U.S. government's official web portal to all federal, state and local government web resources and services.